GW2027 Weather Reports


time (UTC)temp
C
wind
direction
speed
KPH
gust
KPH
rain 1hr
cm
rain 24hr
cm
rain mn
cm
humidity
%
barometer
mb
20260504120127 12 247 3.2 4.8 0.00 0.00 0.00 43 1015.4
20260504110554 10 218 0.0 0.0 0.00 0.00 0.00 51 1015.7
20260504100516 10 200 0.0 0.0 0.00 0.00 0.00 51 1015.7
20260504081909 10 216 0.0 0.0 0.00 0.00 0.00 48 1016.1
20260504081406 10 219 0.0 0.0 0.00 0.00 0.00 47 1016.3
20260504080902 10 220 0.0 0.0 0.00 0.00 0.00 47 1016.2
20260504080359 10 220 0.0 1.6 0.00 0.00 0.00 46 1015.9
20260504070326 9 216 0.0 0.0 0.00 0.00 0.00 46 1016.3
20260504060247 8 216 0.0 0.0 0.00 0.00 0.00 47 1016.4
20260504050715 7 216 0.0 0.0 0.00 0.00 0.00 47 1016.3
20260504050212 7 216 0.0 0.0 0.00 0.00 0.00 47 1016.2
20260504045709 8 216 0.0 0.0 0.00 0.00 0.00 46 1016.4
20260504045209 8 216 0.0 0.0 0.00 0.00 0.00 46 1016.4
20260504044708 8 216 0.0 0.0 0.00 0.00 0.00 46 1016.4
20260504044204 8 216 0.0 0.0 0.00 0.00 0.00 47 1016.3
20260504043701 7 216 0.0 0.0 0.00 0.00 0.00 47 1016.3
20260504043158 7 216 0.0 0.0 0.00 0.00 0.00 47 1016.3
20260504042655 7 216 0.0 0.0 0.00 0.00 0.00 46 1016.3
20260504042152 7 216 0.0 0.0 0.00 0.00 0.00 46 1016.4
20260504041648 8 216 0.0 0.0 0.00 0.00 0.00 45 1016.3
20260504041144 8 216 0.0 0.0 0.00 0.00 0.00 45 1016.4
20260504040641 8 216 0.0 0.0 0.00 0.00 0.00 45 1016.4
20260504040138 8 216 0.0 0.0 0.00 0.00 0.00 44 1016.3
20260504035635 8 217 0.0 0.0 0.00 0.00 0.00 44 1016.2
20260504035131 8 217 0.0 0.0 0.00 0.00 0.00 43 1016.2
20260504034629 8 222 0.0 0.0 0.00 0.00 0.00 45 1016.2
20260504034126 8 213 0.0 0.0 0.00 0.00 0.00 46 1016.0
20260504033624 8 215 0.0 0.0 0.00 0.00 0.00 45 1016.0
20260504033121 8 215 0.0 0.0 0.00 0.00 0.00 46 1015.8
20260504032618 8 215 0.0 0.0 0.00 0.00 0.00 46 1015.8
20260504032115 8 216 0.0 0.0 0.00 0.00 0.00 46 1016.0
20260504031612 8 216 0.0 0.0 0.00 0.00 0.00 45 1015.8
20260504031108 8 216 0.0 0.0 0.00 0.00 0.00 45 1015.7
20260504030605 8 216 0.0 0.0 0.00 0.00 0.00 45 1015.7
20260504030101 8 215 0.0 0.0 0.00 0.00 0.00 45 1015.8
20260504025558 9 215 0.0 0.0 0.00 0.00 0.00 44 1015.8
20260504025055 9 215 0.0 0.0 0.00 0.00 0.00 43 1015.7
20260504024552 9 216 0.0 0.0 0.00 0.00 0.00 43 1015.7
20260504024049 9 216 0.0 0.0 0.00 0.00 0.00 42 1015.7
20260504023546 9 216 0.0 0.0 0.00 0.00 0.00 43 1015.7
20260504023042 9 216 0.0 0.0 0.00 0.00 0.00 42 1015.8
20260504022537 10 216 0.0 0.0 0.00 0.00 0.00 41 1015.9
20260504022034 10 216 0.0 0.0 0.00 0.00 0.00 40 1015.8
20260504021532 10 216 0.0 0.0 0.00 0.00 0.00 40 1015.8
20260504021028 10 217 0.0 0.0 0.00 0.00 0.00 40 1015.7
20260504020525 10 218 0.0 0.0 0.00 0.00 0.00 39 1015.7
20260504020022 10 218 0.0 0.0 0.00 0.00 0.00 39 1015.7
20260504015518 10 218 0.0 0.0 0.00 0.00 0.00 38 1015.5
20260504015014 10 218 0.0 0.0 0.00 0.00 0.00 38 1015.6
20260504014510 10 218 0.0 0.0 0.00 0.00 0.00 37 1015.6
20260504014008 10 218 0.0 0.0 0.00 0.00 0.00 36 1015.5
20260504013506 10 218 0.0 0.0 0.00 0.00 0.00 35 1015.7
20260504013001 10 218 0.0 0.0 0.00 0.00 0.00 35 1015.8
20260504012500 11 218 0.0 0.0 0.00 0.00 0.00 34 1015.5
20260504011957 11 218 0.0 0.0 0.00 0.00 0.00 33 1015.5
20260504011453 11 218 0.0 0.0 0.00 0.00 0.00 32 1015.5
20260504010949 11 218 0.0 0.0 0.00 0.00 0.00 32 1015.3
20260504010446 11 218 0.0 0.0 0.00 0.00 0.00 31 1015.4
20260504005942 12 218 0.0 0.0 0.00 0.00 0.00 30 1015.3
20260504005439 12 218 0.0 0.0 0.00 0.00 0.00 29 1015.5
20260504004936 12 218 0.0 0.0 0.00 0.00 0.00 29 1015.4
20260504004434 13 221 0.0 0.0 0.00 0.00 0.00 27 1015.3
20260504003930 13 221 0.0 0.0 0.00 0.00 0.00 27 1015.2
20260504003427 13 222 0.0 0.0 0.00 0.00 0.00 26 1015.1
20260504002924 14 223 0.0 0.0 0.00 0.00 0.00 26 1015.0
20260504002420 14 225 0.0 0.0 0.00 0.00 0.00 24 1015.1
20260504001918 15 232 1.6 1.6 0.00 0.00 0.00 23 1015.1
20260504001416 15 234 1.6 1.6 0.00 0.00 0.00 23 1014.9
20260504000912 15 239 3.2 3.2 0.00 0.00 0.00 23 1014.8
20260504000409 15 235 1.6 3.2 0.00 0.00 0.00 22 1014.7
20260503235906 15 236 1.6 1.6 0.00 0.00 0.00 22 1014.8
20260503235404 15 238 1.6 3.2 0.00 0.00 0.00 21 1014.8
20260503234901 15 257 6.4 6.4 0.00 0.00 0.00 21 1014.8
20260503234359 16 254 6.4 6.4 0.00 0.00 0.00 20 1014.6
20260503233856 16 228 3.2 4.8 0.00 0.00 0.00 20 1014.5
20260503233353 16 254 4.8 4.8 0.00 0.00 0.00 19 1014.4
20260503232849 16 236 3.2 3.2 0.00 0.00 0.00 20 1014.8
20260503232347 16 261 6.4 6.4 0.00 0.00 0.00 20 1014.5
20260503231844 16 246 4.8 4.8 0.00 0.00 0.00 19 1014.5
20260503231341 16 264 4.8 6.4 0.00 0.00 0.00 19 1014.2
20260503230837 16 275 8.0 9.7 0.00 0.00 0.00 18 1014.4
20260503230334 17 233 3.2 4.8 0.00 0.00 0.00 19 1014.5
20260503225832 17 244 4.8 4.8 0.00 0.00 0.00 18 1014.3
20260503225328 17 260 8.0 9.7 0.00 0.00 0.00 18 1014.6
20260503224824 17 265 6.4 6.4 0.00 0.00 0.00 17 1014.5
20260503224321 16 255 4.8 6.4 0.00 0.00 0.00 18 1014.6
20260503223819 16 257 4.8 4.8 0.00 0.00 0.00 18 1014.6
20260503223317 16 236 11.3 14.5 0.00 0.00 0.00 18 1014.4
20260503222812 16 253 9.7 12.9 0.00 0.00 0.00 17 1014.4
20260503222311 17 270 19.3 22.5 0.00 0.00 0.00 17 1014.5
20260503221809 17 268 11.3 12.9 0.00 0.00 0.00 17 1014.4
20260503221307 17 228 4.8 6.4 0.00 0.00 0.00 17 1014.6
20260503220802 17 254 9.7 11.3 0.00 0.00 0.00 17 1014.6
20260503220300 17 240 6.4 9.7 0.00 0.00 0.00 17 1014.6
20260503215756 17 270 11.3 14.5 0.00 0.00 0.00 17 1014.6
20260503215253 17 229 6.4 6.4 0.00 0.00 0.00 18 1014.7
20260503214751 17 299 4.8 6.4 0.00 0.00 0.00 17 1014.5
20260503214248 17 299 8.0 11.3 0.00 0.00 0.00 18 1014.8
20260503213746 17 301 9.7 12.9 0.00 0.00 0.00 17 1014.5
20260503213243 17 328 6.4 6.4 0.00 0.00 0.00 18 1014.5
20260503212740 16 273 8.0 9.7 0.00 0.00 0.00 18 1014.5
20260503212237 16 228 6.4 11.3 0.00 0.00 0.00 18 1014.6
20260503211735 16 263 8.0 9.7 0.00 0.00 0.00 18 1014.6
20260503211231 16 273 12.9 16.1 0.00 0.00 0.00 18 1014.5
20260503210726 16 280 6.4 9.7 0.00 0.00 0.00 19 1014.7
20260503210224 16 284 16.1 17.7 0.00 0.00 0.00 18 1014.7
20260503205719 16 247 11.3 14.5 0.00 0.00 0.00 19 1014.6
20260503205216 16 235 1.6 3.2 0.00 0.00 0.00 20 1014.6
20260503204712 16 266 6.4 6.4 0.00 0.00 0.00 21 1014.6
20260503204210 16 230 3.2 6.4 0.00 0.00 0.00 22 1014.6
20260503203707 16 261 4.8 6.4 0.00 0.00 0.00 20 1014.8
20260503203205 16 241 9.7 11.3 0.00 0.00 0.00 20 1014.8
20260503202702 16 224 3.2 3.2 0.00 0.00 0.00 20 1014.9
20260503202159 16 351 1.6 3.2 0.00 0.00 0.00 21 1014.9
20260503201657 15 269 12.9 16.1 0.00 0.00 0.00 21 1014.9
20260503201155 15 255 6.4 6.4 0.00 0.00 0.00 22 1015.0
20260503200650 15 256 6.4 6.4 0.00 0.00 0.00 21 1015.1
20260503200147 16 277 14.5 20.9 0.00 0.00 0.00 20 1015.1
20260503195644 16 266 6.4 11.3 0.00 0.00 0.00 20 1015.1
20260503195141 15 233 3.2 4.8 0.00 0.00 0.00 21 1015.3
20260503194638 15 277 11.3 14.5 0.00 0.00 0.00 22 1015.6
20260503194133 15 266 12.9 14.5 0.00 0.00 0.00 21 1015.4
20260503193631 15 257 14.5 16.1 0.00 0.00 0.00 21 1015.4
20260503193126 16 285 9.7 14.5 0.00 0.00 0.00 21 1015.7
20260503192622 15 256 9.7 12.9 0.00 0.00 0.00 21 1015.5
20260503192118 16 258 12.9 14.5 0.00 0.00 0.00 22 1015.6
20260503191615 15 287 8.0 11.3 0.00 0.00 0.00 22 1015.7
20260503191111 15 239 6.4 6.4 0.00 0.00 0.00 21 1015.8
20260503190609 15 272 11.3 14.5 0.00 0.00 0.00 22 1015.8
20260503190106 15 264 11.3 17.7 0.00 0.00 0.00 22 1015.7
20260503185602 15 242 6.4 9.7 0.00 0.00 0.00 24 1015.8
20260503185102 15 275 9.7 11.3 0.00 0.00 0.00 22 1016.0
20260503184557 14 290 6.4 9.7 0.00 0.00 0.00 24 1016.0
20260503184054 14 278 17.7 20.9 0.00 0.00 0.00 23 1016.2
20260503183551 15 289 8.0 12.9 0.00 0.00 0.00 22 1016.0
20260503183048 15 257 6.4 6.4 0.00 0.00 0.00 24 1016.2
20260503182547 13 321 3.2 4.8 0.00 0.00 0.00 24 1016.2
20260503182044 14 279 9.7 11.3 0.00 0.00 0.00 25 1016.1
20260503181541 13 262 3.2 4.8 0.00 0.00 0.00 25 1016.3
20260503181037 14 257 11.3 16.1 0.00 0.00 0.00 24 1016.4
20260503180535 13 319 16.1 20.9 0.00 0.00 0.00 23 1016.3
20260503180032 13 264 8.0 12.9 0.00 0.00 0.00 24 1016.3
20260503175529 14 323 9.7 11.3 0.00 0.00 0.00 23 1016.3
20260503175026 13 279 6.4 11.3 0.00 0.00 0.00 24 1016.5
20260503174524 14 314 9.7 16.1 0.00 0.00 0.00 23 1016.5
20260503174020 14 314 8.0 9.7 0.00 0.00 0.00 24 1016.5
20260503173515 13 283 6.4 11.3 0.00 0.00 0.00 24 1016.6
20260503173011 13 281 9.7 11.3 0.00 0.00 0.00 24 1016.4
20260503172509 13 273 6.4 9.7 0.00 0.00 0.00 23 1016.6
20260503172006 13 255 8.0 11.3 0.00 0.00 0.00 25 1016.6
20260503171502 14 266 11.3 14.5 0.00 0.00 0.00 25 1016.7
20260503171000 14 267 8.0 11.3 0.00 0.00 0.00 24 1016.5
20260503170456 13 56 3.2 4.8 0.00 0.00 0.00 24 1016.7
20260503150848 11 294 8.0 9.7 0.00 0.00 0.00 25 1017.4
20260503150344 11 349 8.0 17.7 0.00 0.00 0.00 27 1017.4
20260503140309 10 254 4.8 6.4 0.00 0.00 0.00 30 1017.5
20260503131238 8 344 9.7 11.3 0.00 0.00 0.00 36 1017.3
20260503130736 8 286 4.8 4.8 0.00 0.00 0.00 37 1017.6
20260503130233 8 304 6.4 11.3 0.00 0.00 0.00 38 1017.3